owner,sensor,date,latitude,longitude,vertical_datum,sea_water_temperature,qcFlag 
SCCF RECON,ioos:station:SCCF:13:1,2019-02-01T05:00:00Z,26.5255,-82.0032,2.33,16.18,11111222 
SCCF RECON,ioos:station:SCCF:13:1,2019-02-01T06:00:00Z,26.5255,-82.0032,2.33,16.18,11111222 
SCCF RECON,ioos:station:SCCF:13:1,2019-02-01T07:00:00Z,26.5255,-82.0032,2.33,16.24,11111222 
SCCF RECON,ioos:station:SCCF:13:1,2019-02-01T08:00:00Z,26.5255,-82.0032,2.33,16.36,11111222 
SCCF RECON,ioos:station:SCCF:13:1,2019-02-01T09:00:00Z,26.5255,-82.0032,2.33,16.44,11111222 
SCCF RECON,ioos:station:SCCF:13:1,2019-02-01T10:00:00Z,26.5255,-82.0032,2.33,16.42,11111222 
SCCF RECON,ioos:station:SCCF:13:1,2019-02-01T11:00:00Z,26.5255,-82.0032,2.33,16.4,11111222 
SCCF RECON,ioos:station:SCCF:13:1,2019-02-01T12:00:00Z,26.5255,-82.0032,2.33,16.38,11111222 
SCCF RECON,ioos:station:SCCF:13:1,2019-02-01T13:00:00Z,26.5255,-82.0032,2.33,16.4,11111222 
SCCF RECON,ioos:station:SCCF:13:1,2019-02-01T14:00:00Z,26.5255,-82.0032,2.33,16.42,11111222 
SCCF RECON,ioos:station:SCCF:13:1,2019-02-01T15:00:00Z,26.5255,-82.0032,2.33,16.55,11111222 
SCCF RECON,ioos:station:SCCF:13:1,2019-02-01T16:00:00Z,26.5255,-82.0032,2.33,16.78,11111222 
SCCF RECON,ioos:station:SCCF:13:1,2019-02-01T17:00:00Z,26.5255,-82.0032,2.33,16.98,11111222 
SCCF RECON,ioos:station:SCCF:13:1,2019-02-01T18:00:00Z,26.5255,-82.0032,2.33,17.19,11111222 
SCCF RECON,ioos:station:SCCF:13:1,2019-02-01T19:00:00Z,26.5255,-82.0032,2.33,17.15,11111222 
SCCF RECON,ioos:station:SCCF:13:1,2019-02-01T20:00:00Z,26.5255,-82.0032,2.33,17.69,11111222 
SCCF RECON,ioos:station:SCCF:13:1,2019-02-01T21:00:00Z,26.5255,-82.0032,2.33,17.8,11111222 
SCCF RECON,ioos:station:SCCF:13:1,2019-02-01T22:00:00Z,26.5255,-82.0032,2.33,17.59,11111222 
SCCF RECON,ioos:station:SCCF:13:1,2019-02-02T05:00:00Z,26.5255,-82.0032,2.33,17.44,11111222 
SCCF RECON,ioos:station:SCCF:13:1,2019-02-02T06:00:00Z,26.5255,-82.0032,2.33,17.42,11111222 
SCCF RECON,ioos:station:SCCF:13:1,2019-02-02T07:00:00Z,26.5255,-82.0032,2.33,17.54,11111222 
SCCF RECON,ioos:station:SCCF:13:1,2019-02-02T08:00:00Z,26.5255,-82.0032,2.33,17.9,11111222 
SCCF RECON,ioos:station:SCCF:13:1,2019-02-02T09:00:00Z,26.5255,-82.0032,2.33,17.8,11111222 
SCCF RECON,ioos:station:SCCF:13:1,2019-02-02T10:00:00Z,26.5255,-82.0032,2.33,17.8,11111222 
SCCF RECON,ioos:station:SCCF:13:1,2019-02-02T11:00:00Z,26.5255,-82.0032,2.33,17.66,11111222 
SCCF RECON,ioos:station:SCCF:13:1,2019-02-02T12:00:00Z,26.5255,-82.0032,2.33,17.64,11111222 
SCCF RECON,ioos:station:SCCF:13:1,2019-02-02T13:00:00Z,26.5255,-82.0032,2.33,17.62,11111222 
SCCF RECON,ioos:station:SCCF:13:1,2019-02-02T14:00:00Z,26.5255,-82.0032,2.33,17.64,11111222 
SCCF RECON,ioos:station:SCCF:13:1,2019-02-02T15:00:00Z,26.5255,-82.0032,2.33,17.64,11111222 
SCCF RECON,ioos:station:SCCF:13:1,2019-02-02T16:00:00Z,26.5255,-82.0032,2.33,17.92,11111222 
SCCF RECON,ioos:station:SCCF:13:1,2019-02-02T17:00:00Z,26.5255,-82.0032,2.33,18.46,11111222 
SCCF RECON,ioos:station:SCCF:13:1,2019-02-02T18:00:00Z,26.5255,-82.0032,2.33,18.42,11111222 
SCCF RECON,ioos:station:SCCF:13:1,2019-02-02T19:00:00Z,26.5255,-82.0032,2.33,18.4,11111222 
SCCF RECON,ioos:station:SCCF:13:1,2019-02-02T20:00:00Z,26.5255,-82.0032,2.33,18.86,11111222 
SCCF RECON,ioos:station:SCCF:13:1,2019-02-02T21:00:00Z,26.5255,-82.0032,2.33,18.99,11111222 
SCCF RECON,ioos:station:SCCF:13:1,2019-02-02T22:00:00Z,26.5255,-82.0032,2.33,18.89,11111222 
SCCF RECON,ioos:station:SCCF:13:1,2019-02-03T05:00:00Z,26.5255,-82.0032,2.33,18.52,11111222 
SCCF RECON,ioos:station:SCCF:13:1,2019-02-03T06:00:00Z,26.5255,-82.0032,2.33,18.55,11111222 
SCCF RECON,ioos:station:SCCF:13:1,2019-02-03T07:00:00Z,26.5255,-82.0032,2.33,18.5,11111222 
SCCF RECON,ioos:station:SCCF:13:1,2019-02-03T08:00:00Z,26.5255,-82.0032,2.33,18.67,11111222 
SCCF RECON,ioos:station:SCCF:13:1,2019-02-03T09:00:00Z,26.5255,-82.0032,2.33,18.8,11111222 
SCCF RECON,ioos:station:SCCF:13:1,2019-02-03T10:00:00Z,26.5255,-82.0032,2.33,18.85,11111222 
SCCF RECON,ioos:station:SCCF:13:1,2019-02-03T11:00:00Z,26.5255,-82.0032,2.33,18.96,11111222 
SCCF RECON,ioos:station:SCCF:13:1,2019-02-03T12:00:00Z,26.5255,-82.0032,2.33,18.99,11111222 
SCCF RECON,ioos:station:SCCF:13:1,2019-02-03T13:00:00Z,26.5255,-82.0032,2.33,18.99,11111222 
SCCF RECON,ioos:station:SCCF:13:1,2019-02-03T14:00:00Z,26.5255,-82.0032,2.33,18.99,11111222 
SCCF RECON,ioos:station:SCCF:13:1,2019-02-03T15:00:00Z,26.5255,-82.0032,2.33,19.05,11111222 
SCCF RECON,ioos:station:SCCF:13:1,2019-02-03T16:00:00Z,26.5255,-82.0032,2.33,19.2,11111222 
SCCF RECON,ioos:station:SCCF:13:1,2019-02-03T17:00:00Z,26.5255,-82.0032,2.33,19.53,11111222 
SCCF RECON,ioos:station:SCCF:13:1,2019-02-03T18:00:00Z,26.5255,-82.0032,2.33,19.68,11111222 
SCCF RECON,ioos:station:SCCF:13:1,2019-02-03T19:00:00Z,26.5255,-82.0032,2.33,19.67,11111222 
SCCF RECON,ioos:station:SCCF:13:1,2019-02-03T20:00:00Z,26.5255,-82.0032,2.33,19.97,11111222 
SCCF RECON,ioos:station:SCCF:13:1,2019-02-03T21:00:00Z,26.5255,-82.0032,2.33,19.94,11111222 
SCCF RECON,ioos:station:SCCF:13:1,2019-02-03T22:00:00Z,26.5255,-82.0032,2.33,20.2,11111222 
SCCF RECON,ioos:station:SCCF:13:1,2019-02-04T05:00:00Z,26.5255,-82.0032,2.33,19.67,11111222 
SCCF RECON,ioos:station:SCCF:13:1,2019-02-04T06:00:00Z,26.5255,-82.0032,2.33,19.58,11111222 
SCCF RECON,ioos:station:SCCF:13:1,2019-02-04T07:00:00Z,26.5255,-82.0032,2.33,19.52,11111222 
SCCF RECON,ioos:station:SCCF:13:1,2019-02-04T08:00:00Z,26.5255,-82.0032,2.33,19.46,11111222 
SCCF RECON,ioos:station:SCCF:13:1,2019-02-04T09:00:00Z,26.5255,-82.0032,2.33,19.8,11111222 
SCCF RECON,ioos:station:SCCF:13:1,2019-02-04T10:00:00Z,26.5255,-82.0032,2.33,20.08,11111222 
SCCF RECON,ioos:station:SCCF:13:1,2019-02-04T11:00:00Z,26.5255,-82.0032,2.33,20.18,11111222 
SCCF RECON,ioos:station:SCCF:13:1,2019-02-04T12:00:00Z,26.5255,-82.0032,2.33,20.16,11111222 
SCCF RECON,ioos:station:SCCF:13:1,2019-02-04T13:00:00Z,26.5255,-82.0032,2.33,20.12,11111222 
SCCF RECON,ioos:station:SCCF:13:1,2019-02-04T14:00:00Z,26.5255,-82.0032,2.33,20.16,11111222 
SCCF RECON,ioos:station:SCCF:13:1,2019-02-04T15:00:00Z,26.5255,-82.0032,2.33,20.25,11111222 
SCCF RECON,ioos:station:SCCF:13:1,2019-02-04T16:00:00Z,26.5255,-82.0032,2.33,20.3,11111222 
SCCF RECON,ioos:station:SCCF:13:1,2019-02-04T17:00:00Z,26.5255,-82.0032,2.33,20.41,11111222 
SCCF RECON,ioos:station:SCCF:13:1,2019-02-04T18:00:00Z,26.5255,-82.0032,2.33,20.73,11111222 
SCCF RECON,ioos:station:SCCF:13:1,2019-02-04T19:00:00Z,26.5255,-82.0032,2.33,20.84,11111222 
SCCF RECON,ioos:station:SCCF:13:1,2019-02-04T20:00:00Z,26.5255,-82.0032,2.33,20.7,11111222 
SCCF RECON,ioos:station:SCCF:13:1,2019-02-04T21:00:00Z,26.5255,-82.0032,2.33,20.7,11111222 
SCCF RECON,ioos:station:SCCF:13:1,2019-02-04T22:00:00Z,26.5255,-82.0032,2.33,20.59,11111222 
SCCF RECON,ioos:station:SCCF:13:1,2019-02-05T05:00:00Z,26.5255,-82.0032,2.33,20.58,11111222 
SCCF RECON,ioos:station:SCCF:13:1,2019-02-05T06:00:00Z,26.5255,-82.0032,2.33,20.21,11111222 
SCCF RECON,ioos:station:SCCF:13:1,2019-02-05T07:00:00Z,26.5255,-82.0032,2.33,19.99,11111222 
SCCF RECON,ioos:station:SCCF:13:1,2019-02-05T08:00:00Z,26.5255,-82.0032,2.33,19.8,11111222 
SCCF RECON,ioos:station:SCCF:13:1,2019-02-05T09:00:00Z,26.5255,-82.0032,2.33,20.16,11111222 
SCCF RECON,ioos:station:SCCF:13:1,2019-02-05T10:00:00Z,26.5255,-82.0032,2.33,20.2,11111222 
SCCF RECON,ioos:station:SCCF:13:1,2019-02-05T11:00:00Z,26.5255,-82.0032,2.33,20.42,11111222 
SCCF RECON,ioos:station:SCCF:13:1,2019-02-05T12:00:00Z,26.5255,-82.0032,2.33,20.38,11111222 
SCCF RECON,ioos:station:SCCF:13:1,2019-02-05T13:00:00Z,26.5255,-82.0032,2.33,20.62,11111222 
SCCF RECON,ioos:station:SCCF:13:1,2019-02-05T14:00:00Z,26.5255,-82.0032,2.33,20.67,11111222 
SCCF RECON,ioos:station:SCCF:13:1,2019-02-05T15:00:00Z,26.5255,-82.0032,2.33,20.76,11111222 
SCCF RECON,ioos:station:SCCF:13:1,2019-02-05T16:00:00Z,26.5255,-82.0032,2.33,20.92,11111222 
SCCF RECON,ioos:station:SCCF:13:1,2019-02-05T18:00:00Z,26.5255,-82.0032,2.33,21.02,11111222 
SCCF RECON,ioos:station:SCCF:13:1,2019-02-05T19:00:00Z,26.5255,-82.0032,2.33,21.11,11111222 
SCCF RECON,ioos:station:SCCF:13:1,2019-02-05T20:00:00Z,26.5255,-82.0032,2.33,20.89,11111222 
SCCF RECON,ioos:station:SCCF:13:1,2019-02-05T21:00:00Z,26.5255,-82.0032,2.33,21.01,11111222 
SCCF RECON,ioos:station:SCCF:13:1,2019-02-05T22:00:00Z,26.5255,-82.0032,2.33,20.95,11111222 
SCCF RECON,ioos:station:SCCF:13:1,2019-02-06T05:00:00Z,26.5255,-82.0032,2.33,20.93,11111222 
SCCF RECON,ioos:station:SCCF:13:1,2019-02-06T06:00:00Z,26.5255,-82.0032,2.33,20.48,11111222 
SCCF RECON,ioos:station:SCCF:13:1,2019-02-06T07:00:00Z,26.5255,-82.0032,2.33,19.95,11111222 
SCCF RECON,ioos:station:SCCF:13:1,2019-02-06T08:00:00Z,26.5255,-82.0032,2.33,19.88,11111222 
SCCF RECON,ioos:station:SCCF:13:1,2019-02-06T09:00:00Z,26.5255,-82.0032,2.33,19.79,11111222 
SCCF RECON,ioos:station:SCCF:13:1,2019-02-06T10:00:00Z,26.5255,-82.0032,2.33,20.18,11111222 
SCCF RECON,ioos:station:SCCF:13:1,2019-02-06T11:00:00Z,26.5255,-82.0032,2.33,20.5,11111222 
SCCF RECON,ioos:station:SCCF:13:1,2019-02-06T12:00:00Z,26.5255,-82.0032,2.33,20.54,11111222 
SCCF RECON,ioos:station:SCCF:13:1,2019-02-06T13:00:00Z,26.5255,-82.0032,2.33,20.77,11111222 
SCCF RECON,ioos:station:SCCF:13:1,2019-02-06T14:00:00Z,26.5255,-82.0032,2.33,20.97,11111222 
SCCF RECON,ioos:station:SCCF:13:1,2019-02-06T15:00:00Z,26.5255,-82.0032,2.33,21.14,11111222 
SCCF RECON,ioos:station:SCCF:13:1,2019-02-06T16:00:00Z,26.5255,-82.0032,2.33,21.37,11111222 
SCCF RECON,ioos:station:SCCF:13:1,2019-02-06T17:00:00Z,26.5255,-82.0032,2.33,21.36,11111222 
SCCF RECON,ioos:station:SCCF:13:1,2019-02-06T18:00:00Z,26.5255,-82.0032,2.33,21.39,11111222 
SCCF RECON,ioos:station:SCCF:13:1,2019-02-06T19:00:00Z,26.5255,-82.0032,2.33,21.42,11111222 
SCCF RECON,ioos:station:SCCF:13:1,2019-02-06T20:00:00Z,26.5255,-82.0032,2.33,21.34,11111222 
SCCF RECON,ioos:station:SCCF:13:1,2019-02-06T22:00:00Z,26.5255,-82.0032,2.33,21.28,11111222 
SCCF RECON,ioos:station:SCCF:13:1,2019-02-07T05:00:00Z,26.5255,-82.0032,2.33,21.33,11111222 
SCCF RECON,ioos:station:SCCF:13:1,2019-02-07T06:00:00Z,26.5255,-82.0032,2.33,20.99,11111222 
SCCF RECON,ioos:station:SCCF:13:1,2019-02-07T07:00:00Z,26.5255,-82.0032,2.33,20.68,11111222 
SCCF RECON,ioos:station:SCCF:13:1,2019-02-07T08:00:00Z,26.5255,-82.0032,2.33,20.16,11111222 
SCCF RECON,ioos:station:SCCF:13:1,2019-02-07T09:00:00Z,26.5255,-82.0032,2.33,19.98,11111222 
SCCF RECON,ioos:station:SCCF:13:1,2019-02-07T10:00:00Z,26.5255,-82.0032,2.33,20.35,11111222 
SCCF RECON,ioos:station:SCCF:13:1,2019-02-07T11:00:00Z,26.5255,-82.0032,2.33,20.72,11111222 
SCCF RECON,ioos:station:SCCF:13:1,2019-02-07T12:00:00Z,26.5255,-82.0032,2.33,20.91,11111222 
SCCF RECON,ioos:station:SCCF:13:1,2019-02-07T13:00:00Z,26.5255,-82.0032,2.33,21.06,11111222 
SCCF RECON,ioos:station:SCCF:13:1,2019-02-07T14:00:00Z,26.5255,-82.0032,2.33,21.34,11111222 
SCCF RECON,ioos:station:SCCF:13:1,2019-02-07T15:00:00Z,26.5255,-82.0032,2.33,21.59,11111222 
SCCF RECON,ioos:station:SCCF:13:1,2019-02-07T16:00:00Z,26.5255,-82.0032,2.33,21.87,11111222 
SCCF RECON,ioos:station:SCCF:13:1,2019-02-07T17:00:00Z,26.5255,-82.0032,2.33,22.08,11111222 
SCCF RECON,ioos:station:SCCF:13:1,2019-02-07T18:00:00Z,26.5255,-82.0032,2.33,21.98,11111222 
SCCF RECON,ioos:station:SCCF:13:1,2019-02-07T19:00:00Z,26.5255,-82.0032,2.33,21.76,11111222 
SCCF RECON,ioos:station:SCCF:13:1,2019-02-07T20:00:00Z,26.5255,-82.0032,2.33,21.79,11111222 
SCCF RECON,ioos:station:SCCF:13:1,2019-02-07T21:00:00Z,26.5255,-82.0032,2.33,21.45,11111222 
SCCF RECON,ioos:station:SCCF:13:1,2019-02-07T22:00:00Z,26.5255,-82.0032,2.33,21.43,11111222 
SCCF RECON,ioos:station:SCCF:13:1,2019-02-08T05:00:00Z,26.5255,-82.0032,2.33,21.64,11111222 
SCCF RECON,ioos:station:SCCF:13:1,2019-02-08T06:00:00Z,26.5255,-82.0032,2.33,21.44,11111222 
SCCF RECON,ioos:station:SCCF:13:1,2019-02-08T07:00:00Z,26.5255,-82.0032,2.33,21.13,11111222 
SCCF RECON,ioos:station:SCCF:13:1,2019-02-08T08:00:00Z,26.5255,-82.0032,2.33,20.57,11111222 
SCCF RECON,ioos:station:SCCF:13:1,2019-02-08T09:00:00Z,26.5255,-82.0032,2.33,20.41,11111222 
SCCF RECON,ioos:station:SCCF:13:1,2019-02-08T10:00:00Z,26.5255,-82.0032,2.33,20.27,11111222 
SCCF RECON,ioos:station:SCCF:13:1,2019-02-08T11:00:00Z,26.5255,-82.0032,2.33,20.71,11111222 
SCCF RECON,ioos:station:SCCF:13:1,2019-02-08T12:00:00Z,26.5255,-82.0032,2.33,21.09,11111222 
SCCF RECON,ioos:station:SCCF:13:1,2019-02-08T13:00:00Z,26.5255,-82.0032,2.33,21.34,11111222 
SCCF RECON,ioos:station:SCCF:13:1,2019-02-08T14:00:00Z,26.5255,-82.0032,2.33,21.51,11111222 
SCCF RECON,ioos:station:SCCF:13:1,2019-02-08T15:00:00Z,26.5255,-82.0032,2.33,22.0,11111222 
SCCF RECON,ioos:station:SCCF:13:1,2019-02-08T16:00:00Z,26.5255,-82.0032,2.33,22.29,11111222 
SCCF RECON,ioos:station:SCCF:13:1,2019-02-08T17:00:00Z,26.5255,-82.0032,2.33,22.57,11111222 
SCCF RECON,ioos:station:SCCF:13:1,2019-02-08T18:00:00Z,26.5255,-82.0032,2.33,22.56,11111222 
SCCF RECON,ioos:station:SCCF:13:1,2019-02-08T19:00:00Z,26.5255,-82.0032,2.33,22.31,11111222 
SCCF RECON,ioos:station:SCCF:13:1,2019-02-08T21:00:00Z,26.5255,-82.0032,2.33,21.8,11111222 
SCCF RECON,ioos:station:SCCF:13:1,2019-02-08T22:00:00Z,26.5255,-82.0032,2.33,21.6,11111222 
SCCF RECON,ioos:station:SCCF:13:1,2019-02-09T05:00:00Z,26.5255,-82.0032,2.33,22.83,11111222 
SCCF RECON,ioos:station:SCCF:13:1,2019-02-09T06:00:00Z,26.5255,-82.0032,2.33,22.21,11111222 
SCCF RECON,ioos:station:SCCF:13:1,2019-02-09T07:00:00Z,26.5255,-82.0032,2.33,21.98,11111222 
SCCF RECON,ioos:station:SCCF:13:1,2019-02-09T08:00:00Z,26.5255,-82.0032,2.33,21.72,11111222 
SCCF RECON,ioos:station:SCCF:13:1,2019-02-09T09:00:00Z,26.5255,-82.0032,2.33,21.38,11111222 
SCCF RECON,ioos:station:SCCF:13:1,2019-02-09T10:00:00Z,26.5255,-82.0032,2.33,21.12,11111222 
SCCF RECON,ioos:station:SCCF:13:1,2019-02-09T11:00:00Z,26.5255,-82.0032,2.33,21.31,11111222 
SCCF RECON,ioos:station:SCCF:13:1,2019-02-09T12:00:00Z,26.5255,-82.0032,2.33,21.66,11111222 
SCCF RECON,ioos:station:SCCF:13:1,2019-02-09T13:00:00Z,26.5255,-82.0032,2.33,21.84,11111222 
SCCF RECON,ioos:station:SCCF:13:1,2019-02-09T14:00:00Z,26.5255,-82.0032,2.33,21.9,11111222 
SCCF RECON,ioos:station:SCCF:13:1,2019-02-09T15:00:00Z,26.5255,-82.0032,2.33,22.11,11111222 
SCCF RECON,ioos:station:SCCF:13:1,2019-02-09T16:00:00Z,26.5255,-82.0032,2.33,22.37,11111222 
SCCF RECON,ioos:station:SCCF:13:1,2019-02-09T17:00:00Z,26.5255,-82.0032,2.33,22.59,11111222 
SCCF RECON,ioos:station:SCCF:13:1,2019-02-09T18:00:00Z,26.5255,-82.0032,2.33,22.77,11111222 
SCCF RECON,ioos:station:SCCF:13:1,2019-02-09T19:00:00Z,26.5255,-82.0032,2.33,22.64,11111222 
SCCF RECON,ioos:station:SCCF:13:1,2019-02-09T20:00:00Z,26.5255,-82.0032,2.33,22.5,11111222 
SCCF RECON,ioos:station:SCCF:13:1,2019-02-09T21:00:00Z,26.5255,-82.0032,2.33,22.33,11111222 
SCCF RECON,ioos:station:SCCF:13:1,2019-02-09T22:00:00Z,26.5255,-82.0032,2.33,21.94,11111222 
SCCF RECON,ioos:station:SCCF:13:1,2019-02-10T05:00:00Z,26.5255,-82.0032,2.33,22.43,11111222 
SCCF RECON,ioos:station:SCCF:13:1,2019-02-10T06:00:00Z,26.5255,-82.0032,2.33,22.44,11111222 
SCCF RECON,ioos:station:SCCF:13:1,2019-02-10T07:00:00Z,26.5255,-82.0032,2.33,22.05,11111222 
SCCF RECON,ioos:station:SCCF:13:1,2019-02-10T08:00:00Z,26.5255,-82.0032,2.33,21.79,11111222 
SCCF RECON,ioos:station:SCCF:13:1,2019-02-10T09:00:00Z,26.5255,-82.0032,2.33,21.51,11111222 
SCCF RECON,ioos:station:SCCF:13:1,2019-02-10T10:00:00Z,26.5255,-82.0032,2.33,21.23,11111222 
SCCF RECON,ioos:station:SCCF:13:1,2019-02-10T11:00:00Z,26.5255,-82.0032,2.33,21.01,11111222 
SCCF RECON,ioos:station:SCCF:13:1,2019-02-10T12:00:00Z,26.5255,-82.0032,2.33,21.05,11111222 
SCCF RECON,ioos:station:SCCF:13:1,2019-02-10T13:00:00Z,26.5255,-82.0032,2.33,21.4,11111222 
SCCF RECON,ioos:station:SCCF:13:1,2019-02-10T14:00:00Z,26.5255,-82.0032,2.33,21.57,11111222 
SCCF RECON,ioos:station:SCCF:13:1,2019-02-10T15:00:00Z,26.5255,-82.0032,2.33,21.8,11111222 
SCCF RECON,ioos:station:SCCF:13:1,2019-02-10T16:00:00Z,26.5255,-82.0032,2.33,22.11,11111222 
SCCF RECON,ioos:station:SCCF:13:1,2019-02-10T17:00:00Z,26.5255,-82.0032,2.33,22.4,11111222 
SCCF RECON,ioos:station:SCCF:13:1,2019-02-10T18:00:00Z,26.5255,-82.0032,2.33,22.5,11111222 
SCCF RECON,ioos:station:SCCF:13:1,2019-02-10T19:00:00Z,26.5255,-82.0032,2.33,22.13,11111222 
SCCF RECON,ioos:station:SCCF:13:1,2019-02-10T20:00:00Z,26.5255,-82.0032,2.33,21.89,11111222 
SCCF RECON,ioos:station:SCCF:13:1,2019-02-10T21:00:00Z,26.5255,-82.0032,2.33,21.9,11111222 
SCCF RECON,ioos:station:SCCF:13:1,2019-02-10T22:00:00Z,26.5255,-82.0032,2.33,21.7,11111222 
SCCF RECON,ioos:station:SCCF:13:1,2019-02-11T06:00:00Z,26.5255,-82.0032,2.33,22.22,11111222 
SCCF RECON,ioos:station:SCCF:13:1,2019-02-11T07:00:00Z,26.5255,-82.0032,2.33,22.18,11111222 
SCCF RECON,ioos:station:SCCF:13:1,2019-02-11T08:00:00Z,26.5255,-82.0032,2.33,21.88,11111222 
SCCF RECON,ioos:station:SCCF:13:1,2019-02-11T09:00:00Z,26.5255,-82.0032,2.33,21.83,11111222 
SCCF RECON,ioos:station:SCCF:13:1,2019-02-11T10:00:00Z,26.5255,-82.0032,2.33,21.67,11111222 
SCCF RECON,ioos:station:SCCF:13:1,2019-02-11T11:00:00Z,26.5255,-82.0032,2.33,21.44,11111222 
SCCF RECON,ioos:station:SCCF:13:1,2019-02-11T12:00:00Z,26.5255,-82.0032,2.33,21.18,11111222 
SCCF RECON,ioos:station:SCCF:13:1,2019-02-11T13:00:00Z,26.5255,-82.0032,2.33,21.22,11111222 
SCCF RECON,ioos:station:SCCF:13:1,2019-02-11T14:00:00Z,26.5255,-82.0032,2.33,21.45,11111222 
SCCF RECON,ioos:station:SCCF:13:1,2019-02-11T15:00:00Z,26.5255,-82.0032,2.33,21.92,11111222 
SCCF RECON,ioos:station:SCCF:13:1,2019-02-11T16:00:00Z,26.5255,-82.0032,2.33,22.2,11111222 
SCCF RECON,ioos:station:SCCF:13:1,2019-02-11T17:00:00Z,26.5255,-82.0032,2.33,22.55,11111222 
SCCF RECON,ioos:station:SCCF:13:1,2019-02-11T18:00:00Z,26.5255,-82.0032,2.33,22.85,11111222 
SCCF RECON,ioos:station:SCCF:13:1,2019-02-11T19:00:00Z,26.5255,-82.0032,2.33,23.25,11111222 
SCCF RECON,ioos:station:SCCF:13:1,2019-02-11T20:00:00Z,26.5255,-82.0032,2.33,22.88,11111222 
SCCF RECON,ioos:station:SCCF:13:1,2019-02-11T21:00:00Z,26.5255,-82.0032,2.33,22.34,11111222 
SCCF RECON,ioos:station:SCCF:13:1,2019-02-11T22:00:00Z,26.5255,-82.0032,2.33,22.31,11111222 
SCCF RECON,ioos:station:SCCF:13:1,2019-02-12T05:00:00Z,26.5255,-82.0032,2.33,23.05,11111222 
SCCF RECON,ioos:station:SCCF:13:1,2019-02-12T06:00:00Z,26.5255,-82.0032,2.33,23.12,11111222 
SCCF RECON,ioos:station:SCCF:13:1,2019-02-12T07:00:00Z,26.5255,-82.0032,2.33,23.09,11111222 
SCCF RECON,ioos:station:SCCF:13:1,2019-02-12T08:00:00Z,26.5255,-82.0032,2.33,23.08,11111222 
SCCF RECON,ioos:station:SCCF:13:1,2019-02-12T09:00:00Z,26.5255,-82.0032,2.33,22.73,11111222 
SCCF RECON,ioos:station:SCCF:13:1,2019-02-12T10:00:00Z,26.5255,-82.0032,2.33,22.64,11111222 
SCCF RECON,ioos:station:SCCF:13:1,2019-02-12T11:00:00Z,26.5255,-82.0032,2.33,22.31,11111222 
SCCF RECON,ioos:station:SCCF:13:1,2019-02-12T12:00:00Z,26.5255,-82.0032,2.33,22.05,11111222 
SCCF RECON,ioos:station:SCCF:13:1,2019-02-12T13:00:00Z,26.5255,-82.0032,2.33,21.79,11111222 
SCCF RECON,ioos:station:SCCF:13:1,2019-02-12T14:00:00Z,26.5255,-82.0032,2.33,21.78,11111222 
SCCF RECON,ioos:station:SCCF:13:1,2019-02-12T15:00:00Z,26.5255,-82.0032,2.33,21.7,11111222 
SCCF RECON,ioos:station:SCCF:13:1,2019-02-12T16:00:00Z,26.5255,-82.0032,2.33,21.89,11111222 
SCCF RECON,ioos:station:SCCF:13:1,2019-02-12T17:00:00Z,26.5255,-82.0032,2.33,22.23,11111222 
SCCF RECON,ioos:station:SCCF:13:1,2019-02-12T18:00:00Z,26.5255,-82.0032,2.33,22.37,11111222 
SCCF RECON,ioos:station:SCCF:13:1,2019-02-12T19:00:00Z,26.5255,-82.0032,2.33,23.06,11111222 
SCCF RECON,ioos:station:SCCF:13:1,2019-02-12T20:00:00Z,26.5255,-82.0032,2.33,23.74,11111222 
SCCF RECON,ioos:station:SCCF:13:1,2019-02-12T21:00:00Z,26.5255,-82.0032,2.33,22.9,11111222 
SCCF RECON,ioos:station:SCCF:13:1,2019-02-12T22:00:00Z,26.5255,-82.0032,2.33,22.21,11111222 
SCCF RECON,ioos:station:SCCF:13:1,2019-02-13T05:00:00Z,26.5255,-82.0032,2.33,23.24,11111222 
SCCF RECON,ioos:station:SCCF:13:1,2019-02-13T06:00:00Z,26.5255,-82.0032,2.33,23.43,11111222 
SCCF RECON,ioos:station:SCCF:13:1,2019-02-13T07:00:00Z,26.5255,-82.0032,2.33,23.55,11111222 
SCCF RECON,ioos:station:SCCF:13:1,2019-02-13T08:00:00Z,26.5255,-82.0032,2.33,23.52,11111222 
SCCF RECON,ioos:station:SCCF:13:1,2019-02-13T09:00:00Z,26.5255,-82.0032,2.33,23.48,11111222 
SCCF RECON,ioos:station:SCCF:13:1,2019-02-13T10:00:00Z,26.5255,-82.0032,2.33,23.42,11111222 
SCCF RECON,ioos:station:SCCF:13:1,2019-02-13T11:00:00Z,26.5255,-82.0032,2.33,23.3,11111222 
SCCF RECON,ioos:station:SCCF:13:1,2019-02-13T12:00:00Z,26.5255,-82.0032,2.33,23.16,11111222 
SCCF RECON,ioos:station:SCCF:13:1,2019-02-13T13:00:00Z,26.5255,-82.0032,2.33,23.08,11111222 
SCCF RECON,ioos:station:SCCF:13:1,2019-02-13T14:00:00Z,26.5255,-82.0032,2.33,22.99,11111222 
SCCF RECON,ioos:station:SCCF:13:1,2019-02-13T15:00:00Z,26.5255,-82.0032,2.33,22.89,11111222 
SCCF RECON,ioos:station:SCCF:13:1,2019-02-13T16:00:00Z,26.5255,-82.0032,2.33,22.77,11111222 
SCCF RECON,ioos:station:SCCF:13:1,2019-02-13T17:00:00Z,26.5255,-82.0032,2.33,22.73,11111222 
SCCF RECON,ioos:station:SCCF:13:1,2019-02-13T18:00:00Z,26.5255,-82.0032,2.33,22.7,11111222 
SCCF RECON,ioos:station:SCCF:13:1,2019-02-13T19:00:00Z,26.5255,-82.0032,2.33,22.68,11111222 
SCCF RECON,ioos:station:SCCF:13:1,2019-02-13T20:00:00Z,26.5255,-82.0032,2.33,22.6,11111222 
SCCF RECON,ioos:station:SCCF:13:1,2019-02-14T20:00:00Z,26.5255,-82.0032,2.33,21.02,11111222 
SCCF RECON,ioos:station:SCCF:13:1,2019-02-14T22:00:00Z,26.5255,-82.0032,2.33,20.51,11111222 
SCCF RECON,ioos:station:SCCF:13:1,2019-02-15T06:00:00Z,26.5255,-82.0032,2.33,20.48,11111222 
SCCF RECON,ioos:station:SCCF:13:1,2019-02-15T07:00:00Z,26.5255,-82.0032,2.33,20.49,11111222 
SCCF RECON,ioos:station:SCCF:13:1,2019-02-15T08:00:00Z,26.5255,-82.0032,2.33,20.33,11111222 
SCCF RECON,ioos:station:SCCF:13:1,2019-02-15T09:00:00Z,26.5255,-82.0032,2.33,20.51,11111222 
SCCF RECON,ioos:station:SCCF:13:1,2019-02-15T10:00:00Z,26.5255,-82.0032,2.33,20.49,11111222 
SCCF RECON,ioos:station:SCCF:13:1,2019-02-15T11:00:00Z,26.5255,-82.0032,2.33,20.44,11111222 
SCCF RECON,ioos:station:SCCF:13:1,2019-02-15T12:00:00Z,26.5255,-82.0032,2.33,20.34,11111222 
SCCF RECON,ioos:station:SCCF:13:1,2019-02-15T13:00:00Z,26.5255,-82.0032,2.33,20.32,11111222 
SCCF RECON,ioos:station:SCCF:13:1,2019-02-15T15:00:00Z,26.5255,-82.0032,2.33,20.45,11111222 
SCCF RECON,ioos:station:SCCF:13:1,2019-02-15T16:00:00Z,26.5255,-82.0032,2.33,20.51,11111222 
SCCF RECON,ioos:station:SCCF:13:1,2019-02-15T17:00:00Z,26.5255,-82.0032,2.33,20.77,11111222 
SCCF RECON,ioos:station:SCCF:13:1,2019-02-15T18:00:00Z,26.5255,-82.0032,2.33,20.89,11111222 
SCCF RECON,ioos:station:SCCF:13:1,2019-02-15T19:00:00Z,26.5255,-82.0032,2.33,21.25,11111222 
SCCF RECON,ioos:station:SCCF:13:1,2019-02-15T20:00:00Z,26.5255,-82.0032,2.33,21.6,11111222 
SCCF RECON,ioos:station:SCCF:13:1,2019-02-15T21:00:00Z,26.5255,-82.0032,2.33,21.34,11111222 
SCCF RECON,ioos:station:SCCF:13:1,2019-02-15T22:00:00Z,26.5255,-82.0032,2.33,21.99,11111222 
SCCF RECON,ioos:station:SCCF:13:1,2019-02-16T06:00:00Z,26.5255,-82.0032,2.33,21.05,11111222 
SCCF RECON,ioos:station:SCCF:13:1,2019-02-16T07:00:00Z,26.5255,-82.0032,2.33,20.91,11111222 
SCCF RECON,ioos:station:SCCF:13:1,2019-02-16T08:00:00Z,26.5255,-82.0032,2.33,21.06,11111222 
SCCF RECON,ioos:station:SCCF:13:1,2019-02-16T09:00:00Z,26.5255,-82.0032,2.33,21.08,11111222 
SCCF RECON,ioos:station:SCCF:13:1,2019-02-16T10:00:00Z,26.5255,-82.0032,2.33,21.26,11111222 
SCCF RECON,ioos:station:SCCF:13:1,2019-02-16T11:00:00Z,26.5255,-82.0032,2.33,21.24,11111222 
SCCF RECON,ioos:station:SCCF:13:1,2019-02-16T12:00:00Z,26.5255,-82.0032,2.33,21.17,11111222 
SCCF RECON,ioos:station:SCCF:13:1,2019-02-16T13:00:00Z,26.5255,-82.0032,2.33,21.07,11111222 
SCCF RECON,ioos:station:SCCF:13:1,2019-02-16T14:00:00Z,26.5255,-82.0032,2.33,20.94,11111222 
SCCF RECON,ioos:station:SCCF:13:1,2019-02-16T15:00:00Z,26.5255,-82.0032,2.33,21.12,11111222 
SCCF RECON,ioos:station:SCCF:13:1,2019-02-16T16:00:00Z,26.5255,-82.0032,2.33,21.25,11111222 